CES5804 KDEN-KSEA

Flight info

Callsign CES5804
Flight time N/A
Altitude 40000
Route ZIMMR4 CHNGY CHE OCS KU72Q KU84M DNJ PDT CHINS5
Aircraft MD11/H-SDE1E2E3FGHIJ2J3J4J5M1RWXY/LB1D1

Departure

Time 2026-05-08 06:34
Airport Denver International Airport (KDEN)

Arrival

Time N/A
Airport Seattle–Tacoma International Airport (KSEA)
Time Latitude Longitude Altitude Speed Heading
2026-05-08 06:02 39.85444 -104.67492 5391 ft 0 kts 185°
2026-05-08 06:19 39.85457 -104.67491 5387 ft 4 kts 185°
2026-05-08 06:20 39.85484 -104.67488 5388 ft 4 kts 185°
2026-05-08 06:20 39.85511 -104.67484 5387 ft 4 kts 185°
2026-05-08 06:20 39.85532 -104.67482 5388 ft 4 kts 186°
2026-05-08 06:20 39.85558 -104.67477 5386 ft 4 kts 190°
2026-05-08 06:21 39.85577 -104.67473 5388 ft 1 kts 190°
2026-05-08 06:22 39.85578 -104.67473 5387 ft 0 kts 190°
2026-05-08 06:26 39.85576 -104.67474 5388 ft 2 kts 195°
2026-05-08 06:26 39.85551 -104.67496 5390 ft 0 kts 220°
2026-05-08 06:26 39.85558 -104.67489 5390 ft 2 kts 220°
2026-05-08 06:26 39.85568 -104.67478 5390 ft 2 kts 227°
2026-05-08 06:27 39.85575 -104.67465 5383 ft 5 kts 265°
2026-05-08 06:27 39.85594 -104.67666 5389 ft 36 kts 272°
2026-05-08 06:27 39.85597 -104.67765 5389 ft 4 kts 271°
2026-05-08 06:27 39.85596 -104.67878 5389 ft 21 kts 269°
2026-05-08 06:28 39.85596 -104.68084 5389 ft 22 kts 270°
2026-05-08 06:28 39.85598 -104.68267 5388 ft 19 kts 271°
2026-05-08 06:28 39.85600 -104.68436 5376 ft 18 kts 270°
2026-05-08 06:28 39.85594 -104.68489 5380 ft 0 kts 246°
2026-05-08 06:29 39.85584 -104.68509 5377 ft 1 kts 235°
2026-05-08 06:29 39.85558 -104.68521 5379 ft 7 kts 188°
2026-05-08 06:29 39.85483 -104.68517 5381 ft 15 kts 179°
2026-05-08 06:29 39.85345 -104.68516 5382 ft 25 kts 180°
2026-05-08 06:30 39.85151 -104.68517 5382 ft 16 kts 183°
2026-05-08 06:31 39.85203 -104.68556 5384 ft 8 kts 267°
2026-05-08 06:31 39.85203 -104.68621 5378 ft 2 kts 270°
2026-05-08 06:31 39.85203 -104.68669 5375 ft 16 kts 270°
2026-05-08 06:31 39.85200 -104.68908 5365 ft 32 kts 268°
2026-05-08 06:32 39.85196 -104.69112 5358 ft 18 kts 269°
2026-05-08 06:32 39.85198 -104.69276 5353 ft 19 kts 272°
2026-05-08 06:32 39.85203 -104.69504 5347 ft 30 kts 270°
2026-05-08 06:32 39.85219 -104.69652 5346 ft 2 kts 303°
2026-05-08 06:33 39.85229 -104.69654 5347 ft 1 kts 352°
2026-05-08 06:33 39.85359 -104.69647 5345 ft 50 kts
2026-05-08 06:33 39.86108 -104.69644 5345 ft 159 kts
2026-05-08 06:33 39.87406 -104.69635 5864 ft 191 kts
2026-05-08 06:34 39.88643 -104.69626 7583 ft 163 kts 357°
2026-05-08 06:34 39.89801 -104.69610 8879 ft 171 kts 357°
2026-05-08 06:34 39.91123 -104.69622 9500 ft 207 kts 352°
2026-05-08 06:34 39.92496 -104.70365 9887 ft 226 kts 316°
2026-05-08 06:35 39.93355 -104.72150 10000 ft 245 kts 286°
2026-05-08 06:35 39.93531 -104.74425 10008 ft 260 kts 270°
2026-05-08 06:35 39.93457 -104.76841 9977 ft 276 kts 268°
2026-05-08 06:35 39.93368 -104.79392 9961 ft 277 kts 269°
2026-05-08 06:36 39.93307 -104.81909 9962 ft 277 kts 269°
2026-05-08 06:36 39.93302 -104.84469 9988 ft 300 kts 273°
2026-05-08 06:36 39.93443 -104.87235 11066 ft 308 kts 275°
2026-05-08 06:36 39.93611 -104.90024 12403 ft 311 kts 276°
2026-05-08 06:37 39.93778 -104.92845 13783 ft 314 kts 277°
2026-05-08 06:37 39.93942 -104.95703 15018 ft 318 kts 277°
2026-05-08 06:37 39.94100 -104.98565 16251 ft 323 kts 277°
2026-05-08 06:37 39.94259 -105.01523 17528 ft 329 kts 276°
2026-05-08 06:38 39.94416 -105.04529 18709 ft 335 kts 276°
2026-05-08 06:38 39.94574 -105.07586 19796 ft 341 kts 276°
2026-05-08 06:38 39.94733 -105.10711 20861 ft 347 kts 276°
2026-05-08 06:38 39.94893 -105.13885 21894 ft 353 kts 276°
2026-05-08 06:39 39.95053 -105.17103 22919 ft 359 kts 275°
2026-05-08 06:39 39.95213 -105.20334 23893 ft 365 kts 275°
2026-05-08 06:39 39.95377 -105.23657 24782 ft 370 kts 276°
2026-05-08 06:39 39.95541 -105.27022 25730 ft 374 kts 276°
2026-05-08 06:40 39.95707 -105.30433 26620 ft 379 kts 277°
2026-05-08 06:40 39.95874 -105.33881 27576 ft 384 kts 277°
2026-05-08 06:40 39.96042 -105.37369 28521 ft 388 kts 278°
2026-05-08 06:40 39.96212 -105.40904 29424 ft 393 kts 278°
2026-05-08 06:41 39.96383 -105.44486 30254 ft 398 kts 278°
2026-05-08 06:41 39.96554 -105.48101 30959 ft 402 kts 278°
2026-05-08 06:41 39.96726 -105.51761 31694 ft 405 kts 279°
2026-05-08 06:41 39.96898 -105.55453 32354 ft 409 kts 279°
2026-05-08 06:42 39.97070 -105.59170 32973 ft 413 kts 279°
2026-05-08 06:42 39.97242 -105.62924 33565 ft 416 kts 279°
2026-05-08 06:42 39.97412 -105.66661 33994 ft 422 kts 280°
2026-05-08 06:42 39.97597 -105.70536 34169 ft 433 kts 280°
2026-05-08 06:43 39.97788 -105.74477 34616 ft 438 kts 280°
2026-05-08 06:43 39.97982 -105.78459 35012 ft 441 kts 279°
2026-05-08 06:43 39.98176 -105.82429 35371 ft 437 kts 279°
2026-05-08 06:43 39.98370 -105.86406 35741 ft 437 kts 279°
2026-05-08 06:44 39.98566 -105.90372 35887 ft 439 kts 279°
2026-05-08 06:44 39.98762 -105.94346 35942 ft 439 kts 279°
2026-05-08 06:44 39.99149 -106.02270 35946 ft 438 kts 279°
2026-05-08 06:45 39.99533 -106.10209 35953 ft 439 kts 279°
2026-05-08 06:45 39.99909 -106.18143 35955 ft 437 kts 279°
2026-05-08 06:46 40.00278 -106.26031 35954 ft 436 kts 279°
2026-05-08 06:46 40.00644 -106.33937 35956 ft 436 kts 279°
2026-05-08 06:47 40.01119 -106.41768 35950 ft 433 kts 285°
2026-05-08 06:47 40.02922 -106.49110 35956 ft 421 kts 303°
2026-05-08 06:48 40.06290 -106.55294 35955 ft 416 kts 312°
2026-05-08 06:48 40.09998 -106.61070 35951 ft 415 kts 313°
2026-05-08 06:49 40.13662 -106.66899 35967 ft 415 kts 312°
2026-05-08 06:49 40.17268 -106.72775 35949 ft 413 kts 312°
2026-05-08 06:50 40.20821 -106.78619 35966 ft 414 kts 312°
2026-05-08 06:50 40.24398 -106.84521 35978 ft 414 kts 312°
2026-05-08 06:51 40.27985 -106.90451 35961 ft 414 kts 312°
2026-05-08 06:51 40.31552 -106.96357 35987 ft 413 kts 312°
2026-05-08 06:52 40.35088 -107.02225 35996 ft 409 kts 312°
2026-05-08 06:52 40.38613 -107.08083 36002 ft 409 kts 312°
2026-05-08 06:53 40.42111 -107.13904 36027 ft 410 kts 312°
2026-05-08 06:53 40.45646 -107.19799 36452 ft 409 kts 312°
2026-05-08 06:54 40.47839 -107.23463 37243 ft 407 kts 312°
2026-05-08 06:54 40.61617 -107.45579 39926 ft 411 kts 313°
2026-05-08 06:54 40.65398 -107.51483 39987 ft 405 kts 313°
2026-05-08 06:55 40.89664 -107.89791 39858 ft 399 kts 313°
2026-05-08 06:55 41.01175 -108.08124 39873 ft 397 kts 313°
2026-05-08 06:56 41.04673 -108.13728 39871 ft 397 kts 313°
2026-05-08 06:56 41.08179 -108.19403 39872 ft 398 kts 313°
2026-05-08 06:57 41.11693 -108.25080 39869 ft 398 kts 313°
2026-05-08 06:57 41.15211 -108.30751 39871 ft 397 kts 313°
2026-05-08 06:58 41.18715 -108.36401 39866 ft 397 kts 313°
2026-05-08 06:58 41.22229 -108.42076 39863 ft 397 kts 313°
2026-05-08 06:59 41.25726 -108.47735 39865 ft 396 kts 313°
2026-05-08 06:59 41.29193 -108.53356 39953 ft 397 kts 313°
2026-05-08 07:00 41.32698 -108.59049 39972 ft 398 kts 313°